Home > Weather > Wilmington > Past weeks

Flag for USA Past Weather in Wilmington, Delaware, USA — Yesterday and Last 2 Weeks

Now
93 °F

Sunny.


Feels Like: 93 °F
Forecast: 75 / 91 °F
Wind: 5 mph from North

Location: New Castle County Airport

Current Time: Jul 27, 2016 at 3:21:41 PM

Latest Report: Jul 27, 2016 at 2:51 PM


Visibility: 10 mi

Pressure: 29.92 "Hg

Humidity: 33%

Dew Point: 60 °F

Location of WilmingtonLocation

Past Weather in Wilmington — Graph

°F

Wilmington Temperature Yesterday

Maximum temperature yesterday: 90 °F (at 12:51 PM)
Minimum temperature yesterday: 73 °F (at 3:51 AM)
Average temperature yesterday: 82 °F

High & Low Weather Summary for the Past Weeks

 TemperatureHumidityPressure
High95 °F (Jul 23, 2:51 PM)97% (Jul 14, 7:51 AM)30.22 "Hg (Jul 14, 7:51 AM)
Low67 °F (Jul 21, 5:51 AM)34% (Jul 19, 5:51 PM)29.82 "Hg (Jul 14, 5:51 PM)
Average81 °F69%30.01 "Hg
* Reported Jul 12 1:51 PM — Jul 27 1:51 PM, Wilmington, Weather by CustomWeather, © 2016

Note: Actual official high and low records may vary slightly from our data, if they occured in-between our weather recording intervals... More about our weather records

Advertising

Wilmington Weather History for the Previous 24 Hours

Scroll right to see more
 ConditionsComfort  
Time TempWeatherWind HumidityBarometerVisibility
1:51 PM
Wed, Jul 27
90 °FSunny.6 mph48%29.93 "Hg10 mi
12:51 PM90 °FSunny.3 mph48%29.94 "Hg10 mi
11:51 AM88 °FSunny.3 mph50%29.95 "Hg10 mi
10:51 AM86 °FSunny.6 mph51%29.95 "Hg10 mi
9:51 AM84 °FPartly sunny.12 mph53%29.96 "Hg10 mi
8:51 AM82 °FSunny.9 mph58%29.95 "Hg10 mi
6:51 AM79 °FLight rain. Passing clouds.8 mph65%29.94 "Hg10 mi
4:51 AM80 °FLight rain. Passing clouds.9 mph71%29.92 "Hg10 mi
3:51 AM80 °FClear.6 mph79%29.92 "Hg10 mi
2:51 AM80 °FClear.No wind76%29.91 "Hg10 mi
1:51 AM80 °FClear.No wind76%29.92 "Hg10 mi
12:51 AM81 °FClear.No wind72%29.92 "Hg10 mi
11:51 PM
Tue, Jul 26
82 °FClear.5 mph70%29.92 "Hg10 mi
10:51 PM82 °FClear.5 mph72%29.92 "Hg10 mi
9:51 PM82 °FClear.5 mph72%29.93 "Hg10 mi
8:51 PM84 °FSunny.5 mph65%29.91 "Hg10 mi
7:51 PM85 °FSunny.6 mph63%29.91 "Hg10 mi
6:51 PM87 °FSunny.8 mph57%29.89 "Hg10 mi
5:51 PM90 °FSunny.8 mph50%29.90 "Hg10 mi
4:51 PM89 °FSunny.9 mph50%29.90 "Hg10 mi
3:51 PM89 °FSunny.12 mph52%29.91 "Hg10 mi
Weather by CustomWeather, © 2016

See weather overviewHow to use our weather pages